Powrót do katalogu

FENGYUN 1C DEB

AktywnyPO
NORAD 35240·DEBRIS·🇨🇳 China

Wystrzelony May 10, 1999 z Taiyuan Satellite Launch Center

Loading…

Następne Przeloty (najbliższe 24 godziny)

TLE

ŚwieżeSource: Space-Track

Epoka: Sep 12, 2026, 04:17 UTC

1 35240U 99025DQY 26255.17907220  .00001838  00000-0  79373-3 0  9999
2 35240  99.3623 240.2449 0047409  93.2671 267.3932 14.25204127970573

Śledź FENGYUN 1C DEB w czasie rzeczywistym z AllMySat

Download on the App Store